[[{"header":{"parameterUnit":"m.s-1","parameterCategory":2,"la1":30.2991,"la2":30.254,"lo1":-89.0895,"lo2":-89.0444,"dy":0.0017,"dx":0.0017,"nx":28,"ny":28,"refTime":"2023-08-26T09:00:00:Z","depth":"0","parameterNumber":2,"parameterNumberName":"U-component_of_CURRENTS"},"data":[0,0,0,0,0,0,0,0,0,0,0,0,0,0,0,0,0,0,0,0,0,0,0,0,0,0,0,0,0,0,0,0,0,0,0,0,0,0,0,0,0,0,0,0,0,0,0,0,0,0,0,0,0,0,0,0,0,0,-0.215,-0.215,0,-0.2228,-0.2229,-0.223,-0.2271,-0.2271,-0.2271,-0.2271,-0.2458,-0.2463,-0.2468,0,0,0,0,0,0,0,0,0,0,0,0,0,-0.2079,-0.208,-0.215,-0.215,-0.2151,-0.2228,-0.2229,-0.223,-0.2271,-0.2271,-0.2271,-0.2271,-0.2456,-0.2462,-0.2469,0,0,0,0,0,0,0,0,0,0,0,0,0,-0.2131,-0.2081,-0.2149,-0.2179,-0.2182,-0.2228,-0.2229,-0.2231,-0.2271,-0.2271,-0.2271,-0.2271,-0.2454,-0.2462,-0.2469,-0.2522,0,0,-0.2493,-0.2496,0,0,0,0,0,0,0,0,-0.2128,-0.2134,-0.2174,-0.2177,-0.2181,-0.2238,-0.2273,-0.2333,-0.2271,-0.224,-0.2271,-0.2271,-0.2393,-0.2406,-0.2423,-0.253,-0.2539,-0.2494,-0.2498,-0.2502,-0.2504,0,0,0,0,0,0,0,-0.2124,-0.2131,-0.2183,-0.2175,-0.2179,-0.2203,-0.221,-0.2284,-0.2321,-0.2243,-0.2245,-0.225,-0.2396,-0.2415,-0.2428,-0.2541,-0.2493,-0.25,-0.2505,-0.2508,-0.2629,-0.2628,0,0,0,0,0,0,-0.2108,-0.2127,-0.2181,-0.2185,-0.2151,-0.2204,-0.2212,-0.2221,-0.2318,-0.2331,-0.225,-0.2252,-0.2402,-0.2419,-0.2435,-0.2457,-0.2502,-0.2509,-0.2513,-0.263,-0.2629,-0.2627,0,0,0,0,0,0,-0.2106,-0.2112,-0.2177,-0.2156,-0.2166,-0.2205,-0.2216,-0.2223,-0.2236,-0.2322,-0.2337,-0.2254,-0.2403,-0.2424,-0.2508,-0.2467,-0.2512,-0.2519,-0.2632,-0.263,-0.2628,-0.2532,0,0,0,0,0,0,-0.2104,-0.2111,-0.2113,-0.2155,-0.2166,-0.2191,-0.2216,-0.2225,-0.2239,-0.2241,-0.2331,-0.2348,-0.2404,-0.2496,-0.2516,-0.2478,-0.2525,-0.2634,-0.2631,-0.2629,-0.2537,-0.2527,-0.2518,0,0,0,0,0,-0.2101,-0.2104,-0.2113,-0.212,-0.2168,-0.219,-0.2198,-0.2227,-0.2239,-0.2239,-0.2314,-0.2345,-0.2491,-0.2504,-0.2526,-0.2489,-0.2635,-0.2632,-0.2629,-0.2541,-0.2529,-0.2518,0,0,0,0,0,0,-0.2077,-0.211,-0.212,-0.2134,-0.2152,-0.2196,-0.2202,-0.2221,-0.2278,-0.2289,-0.2367,-0.239,-0.2432,-0.2483,-0.2494,-0.2511,-0.2552,-0.2553,-0.2477,-0.2467,-0.2457,-0.246,-0.2532,0,0,0,0,0,-0.2071,-0.2079,-0.2111,-0.2118,-0.2127,-0.2162,-0.2176,-0.2195,-0.2248,-0.2271,-0.2326,-0.2385,-0.2437,-0.2472,-0.2525,-0.2567,-0.2582,-0.2543,-0.2534,-0.2525,-0.254,-0.2532,-0.2523,-0.2617,-0.2617,-0.2617,0,0,-0.2064,-0.2081,-0.2086,-0.2112,-0.2132,-0.2154,-0.217,-0.2186,-0.2203,-0.2287,-0.2326,-0.2366,-0.2442,-0.2473,-0.2492,-0.2513,-0.2497,-0.2521,-0.2514,-0.2534,-0.2528,-0.2519,-0.2511,-0.2615,-0.2615,-0.2615,0,0,-0.2057,-0.2066,-0.2075,-0.2091,-0.2115,-0.2138,-0.2137,-0.2171,-0.2182,-0.223,-0.2276,-0.2299,-0.2387,-0.2415,-0.2448,-0.2424,-0.2448,-0.2417,-0.2382,-0.2372,-0.2365,-0.2358,-0.2325,-0.2317,-0.2413,-0.2412,-0.2412,0,-0.2048,-0.2066,-0.2079,-0.2094,-0.2108,-0.2128,-0.2145,-0.2162,-0.2215,-0.2227,-0.2229,-0.2307,-0.2355,-0.2394,-0.2373,-0.2401,-0.24,-0.242,-0.236,-0.2354,-0.235,-0.2318,-0.231,-0.2407,-0.2408,-0.2408,-0.2409,0,-0.2055,-0.2069,-0.2072,-0.21,-0.2115,-0.2126,-0.2152,-0.216,-0.2168,-0.2185,-0.2201,-0.2247,-0.2295,-0.2278,-0.2331,-0.2309,-0.2317,-0.2346,-0.2388,-0.2334,-0.2304,-0.2297,-0.24,-0.2402,-0.2403,-0.2405,0,0,-0.2032,-0.2072,-0.2072,-0.2088,-0.2119,-0.2132,-0.2151,-0.2173,-0.2186,-0.2184,-0.2193,-0.222,-0.2219,-0.2255,-0.2279,-0.2261,-0.2199,-0.2287,-0.2288,-0.2253,-0.216,-0.2085,-0.2071,-0.222,-0.2219,-0.2218,-0.2137,0,-0.2032,-0.2062,-0.2084,-0.2108,-0.2123,-0.2148,-0.2164,-0.2185,-0.2193,-0.2203,-0.2198,-0.222,-0.2218,-0.2228,-0.2205,-0.2229,-0.2185,-0.2218,-0.222,-0.222,-0.2159,-0.2062,-0.1974,-0.1887,-0.2131,-0.213,-0.2129,0,-0.2023,-0.205,-0.2076,-0.2114,-0.2123,-0.2139,-0.2167,-0.2187,-0.2205,-0.2209,-0.2208,-0.2221,-0.2209,-0.2202,-0.217,-0.2195,-0.2165,-0.2153,-0.2151,-0.212,-0.2134,-0.1989,-0.1867,-0.1854,-0.212,-0.212,-0.2121,0,-0.1988,-0.2034,-0.2053,-0.2068,-0.212,-0.213,-0.2153,-0.218,-0.2193,-0.2211,-0.2214,-0.221,-0.2201,-0.2175,-0.2147,-0.2163,-0.2098,-0.2121,-0.201,-0.2004,-0.195,-0.1941,-0.182,-0.2065,-0.2065,-0.2065,-0.2065,0,-0.1968,-0.1979,-0.2037,-0.205,-0.2065,-0.211,-0.2123,-0.2147,-0.2179,-0.2182,-0.2209,-0.2199,-0.2194,-0.2164,-0.2138,-0.2044,-0.2084,-0.1981,-0.1972,-0.1908,-0.1896,-0.1904,-0.1949,-0.2062,-0.2063,-0.2063,-0.2064,0,-0.1907,-0.1953,-0.1971,-0.203,-0.2044,-0.2049,-0.2094,-0.2104,-0.2148,-0.2153,-0.2157,-0.218,-0.213,-0.2105,-0.2058,-0.2013,-0.1911,-0.1906,-0.1816,-0.1796,-0.167,-0.1713,-0.1631,-0.158,-0.1759,-0.1756,-0.1754,0,-0.1874,-0.1878,-0.1933,-0.1942,-0.1963,-0.1986,-0.1998,-0.2063,-0.2079,-0.2127,-0.2121,-0.2097,-0.2046,-0.1948,-0.1871,-0.1775,-0.1796,-0.1641,-0.1646,-0.1621,-0.1664,-0.1709,-0.1676,-0.1523,-0.1519,-0.1516,-0.1514,0,-0.1796,-0.1812,-0.1831,-0.1854,-0.1869,-0.1887,-0.1916,-0.1934,-0.2003,-0.2011,-0.2007,-0.1977,-0.1887,-0.1754,-0.1642,-0.1579,-0.1605,-0.1572,-0.1576,-0.148,-0.1495,-0.1455,-0.1617,-0.1486,-0.1489,-0.1491,-0.1492,-0.1493,-0.1713,-0.1704,-0.1729,-0.1733,-0.1757,-0.1763,-0.1732,-0.1785,-0.1786,-0.1771,-0.184,-0.1757,-0.1685,-0.1506,-0.1441,-0.1302,-0.1379,-0.1254,-0.1309,-0.1356,-0.1302,-0.1382,-0.1231,-0.1233,-0.1234,-0.1235,-0.1236,0,-0.1598,-0.1601,-0.1608,-0.1611,-0.1582,-0.1634,-0.1648,-0.1596,-0.1549,-0.1581,-0.1546,-0.1474,-0.135,-0.1292,-0.1167,-0.1084,-0.1066,-0.1053,-0.1107,-0.1084,-0.1161,-0.1144,-0.0931,-0.0931,-0.0931,-0.0931,-0.0931,-0.0931,-0.1538,-0.15,-0.1506,-0.142,-0.1419,-0.1332,-0.1307,-0.1255,-0.1245,-0.1155,-0.1129,-0.1096,-0.1108,-0.1221,-0.1102,-0.102,-0.1007,-0.096,-0.1,-0.108,-0.1104,-0.1127,-0.1118,-0.0903,-0.0903,-0.0861,-0.0861,-0.0861]},{"header":{"parameterUnit":"m.s-1","parameterCategory":2,"la1":30.2991,"la2":30.254,"lo1":-89.0895,"lo2":-89.0444,"dy":0.0017,"dx":0.0017,"nx":28,"ny":28,"refTime":"2023-08-26T09:00:00:Z","depth":"0","parameterNumber":3,"parameterNumberName":"V-component_of_CURRENTS"},"data":[0,0,0,0,0,0,0,0,0,0,0,0,0,0,0,0,0,0,0,0,0,0,0,0,0,0,0,0,0,0,0,0,0,0,0,0,0,0,0,0,0,0,0,0,0,0,0,0,0,0,0,0,0,0,0,0,0,0,-0.0358,-0.0358,0,-0.0273,-0.0272,-0.0271,-0.0185,-0.0185,-0.0184,-0.0183,0.0032,0.0037,0.0041,0,0,0,0,0,0,0,0,0,0,0,0,0,-0.0386,-0.0386,-0.0358,-0.0358,-0.0357,-0.0273,-0.0272,-0.027,-0.0186,-0.0184,-0.0183,-0.0182,0.003,0.0036,0.0042,0,0,0,0,0,0,0,0,0,0,0,0,0,-0.0343,-0.0386,-0.0359,-0.0306,-0.0301,-0.0273,-0.0272,-0.027,-0.0186,-0.0184,-0.0183,-0.0182,0.0028,0.0035,0.0043,0.006,0,0,0.0065,0.0068,0,0,0,0,0,0,0,0,-0.0346,-0.0342,-0.0315,-0.031,-0.0304,-0.024,-0.0203,-0.0154,-0.0186,-0.0227,-0.0183,-0.0181,-0.005,-0.0036,-0.0022,0.007,0.0079,0.0065,0.007,0.0073,0.0075,0,0,0,0,0,0,0,-0.0349,-0.0345,-0.0322,-0.0314,-0.0307,-0.0266,-0.0258,-0.0193,-0.0143,-0.0223,-0.0218,-0.0212,-0.0045,-0.0029,-0.0016,0.0082,0.0065,0.0072,0.0076,0.0079,0.0267,0.0268,0,0,0,0,0,0,-0.0369,-0.0348,-0.0325,-0.032,-0.0324,-0.0267,-0.0258,-0.026,-0.0146,-0.0129,-0.0213,-0.0209,-0.0042,-0.0024,-0.0008,0.0036,0.0073,0.008,0.0084,0.0267,0.0268,0.0268,0,0,0,0,0,0,-0.037,-0.0368,-0.0329,-0.0333,-0.0325,-0.0268,-0.0271,-0.0259,-0.024,-0.0141,-0.012,-0.0206,-0.004,-0.0018,0.0059,0.0045,0.0083,0.009,0.0266,0.0267,0.0268,0.0113,0,0,0,0,0,0,-0.0371,-0.0369,-0.0376,-0.0335,-0.0326,-0.0318,-0.0272,-0.0259,-0.024,-0.0233,-0.0127,-0.0106,-0.0037,0.0048,0.0066,0.0055,0.0095,0.0265,0.0266,0.0268,0.0117,0.0109,0.0101,0,0,0,0,0,-0.0373,-0.0386,-0.0378,-0.0375,-0.0339,-0.0319,-0.0311,-0.0263,-0.0241,-0.0239,-0.0159,-0.0109,0.0069,0.0054,0.0076,0.0066,0.0265,0.0266,0.0268,0.0121,0.011,0.0101,0,0,0,0,0,0,-0.0397,-0.0378,-0.0367,-0.0374,-0.0353,-0.0305,-0.0298,-0.0273,-0.0213,-0.0199,-0.0105,-0.0078,-0.001,0.0054,0.0035,0.013,0.0177,0.0182,0.0058,0.0049,0.0041,0.0029,0.0101,0,0,0,0,0,-0.0412,-0.0418,-0.0392,-0.0398,-0.0391,-0.035,-0.0336,-0.031,-0.0254,-0.0228,-0.0159,-0.0071,0.0011,0.0048,0.0132,0.0172,0.0228,0.0186,0.0177,0.017,0.0178,0.0235,0.0232,0.0273,0.0273,0.0273,0,0,-0.0421,-0.0414,-0.0415,-0.0404,-0.0382,-0.0378,-0.0337,-0.0324,-0.0314,-0.0212,-0.0171,-0.0093,0.0021,0.0075,0.0109,0.0123,0.0185,0.0171,0.0163,0.0177,0.0236,0.0232,0.0228,0.0274,0.0274,0.0274,0,0,-0.0445,-0.044,-0.0453,-0.0446,-0.0429,-0.0403,-0.0406,-0.0369,-0.0343,-0.0304,-0.0217,-0.0156,-0.0045,0.0024,0.0078,0.0076,0.0148,0.0107,0.0042,0.0095,0.0091,0.0089,0.013,0.0132,0.0091,0.009,0.009,0,-0.0458,-0.0473,-0.0453,-0.0465,-0.0463,-0.042,-0.0432,-0.0403,-0.0346,-0.0322,-0.0302,-0.0144,-0.0069,0.0012,0.0009,0.0053,0.0098,0.0057,0.0079,0.0078,0.0078,0.0122,0.0126,0.0083,0.0084,0.0085,0.0086,0,-0.0494,-0.0504,-0.0511,-0.0514,-0.0509,-0.0513,-0.0481,-0.0464,-0.0433,-0.0398,-0.0324,-0.0231,-0.0135,-0.0113,-0.0053,-0.0011,0.0025,0.0063,0.0088,0.0064,0.0112,0.0119,0.0073,0.0075,0.0078,0.0079,0,0,-0.0524,-0.0535,-0.0537,-0.0549,-0.0539,-0.0539,-0.0525,-0.0496,-0.0478,-0.043,-0.0397,-0.0293,-0.0248,-0.0182,-0.011,-0.0077,-0.0064,-0.0022,-0.0016,-0.001,0.0048,0.0088,0.0101,-0.0028,-0.0027,-0.0026,0.0071,0,-0.0555,-0.0596,-0.0587,-0.0613,-0.063,-0.0596,-0.0589,-0.0558,-0.0512,-0.0469,-0.0386,-0.032,-0.0271,-0.0234,-0.0194,-0.0072,-0.0046,-0.0093,0.0099,0.0105,0.0119,0.0111,0.0143,0.0235,0.0079,0.0081,0.0082,0,-0.0595,-0.0617,-0.0658,-0.0671,-0.0674,-0.0679,-0.0657,-0.0641,-0.0566,-0.053,-0.0459,-0.0383,-0.0304,-0.0272,-0.0115,-0.0146,-0.0063,0.0009,0.0015,0.0118,0.016,0.0245,0.0255,0.0394,0.0094,0.0093,0.0092,0,-0.0639,-0.0664,-0.07,-0.0708,-0.0714,-0.0718,-0.0709,-0.066,-0.0639,-0.056,-0.0531,-0.0423,-0.0358,-0.0246,-0.0099,-0.0105,0.007,0.0084,0.0194,0.0198,0.03,0.0311,0.0449,0.0178,0.0178,0.0177,0.0177,0,-0.0686,-0.0711,-0.0724,-0.0747,-0.0781,-0.0767,-0.0772,-0.0742,-0.0686,-0.0657,-0.0563,-0.0505,-0.0349,-0.0228,-0.0107,0.0075,0.0067,0.0191,0.0231,0.0247,0.0252,0.044,0.0501,0.0181,0.018,0.018,0.0179,0,-0.0732,-0.0741,-0.0782,-0.0799,-0.0807,-0.083,-0.0824,-0.0818,-0.076,-0.0713,-0.0693,-0.0555,-0.0397,-0.0238,-0.004,0.0072,0.0327,0.0292,0.0293,0.0331,0.0551,0.0602,0.0799,0.0893,0.0425,0.0427,0.0428,0,-0.0761,-0.0787,-0.0827,-0.0855,-0.0865,-0.0888,-0.0903,-0.0862,-0.0843,-0.0734,-0.071,-0.0558,-0.0431,-0.0126,0.0091,0.0309,0.0411,0.0461,0.0455,0.0576,0.0662,0.0687,0.0754,0.0523,0.0525,0.0526,0.0528,0,-0.0808,-0.0818,-0.0852,-0.0913,-0.0943,-0.0969,-0.0976,-0.0973,-0.0908,-0.0844,-0.0721,-0.0612,-0.0317,-0.0033,0.0244,0.0371,0.0576,0.0502,0.0642,0.0765,0.0792,0.0896,0.0433,0.0543,0.0541,0.054,0.0539,0.0539,-0.0829,-0.0869,-0.0912,-0.0966,-0.1003,-0.1032,-0.1039,-0.1011,-0.0966,-0.0836,-0.0737,-0.0496,-0.012,0.0288,0.0441,0.0764,0.0721,0.0849,0.0903,0.0918,0.1008,0.0568,0.0712,0.0711,0.0711,0.071,0.071,0,-0.0856,-0.0902,-0.0961,-0.102,-0.106,-0.1066,-0.1072,-0.1032,-0.0958,-0.0796,-0.0647,-0.0162,0.0211,0.0566,0.099,0.1159,0.12,0.1233,0.1285,0.1337,0.0968,0.0973,0.1163,0.1163,0.1163,0.1163,0.1162,0.1162,-0.0871,-0.0935,-0.0971,-0.1047,-0.1083,-0.1096,-0.1089,-0.1,-0.0866,-0.055,-0.0239,-0.0008,0.0494,0.1122,0.1508,0.1532,0.1696,0.1663,0.1761,0.1509,0.1477,0.1446,0.1466,0.1756,0.1757,0.2115,0.2118,0.2121]}],[{"header":{"parameterUnit":"m.s-1","parameterCategory":2,"la1":30.2991,"la2":30.254,"lo1":-89.0895,"lo2":-89.0444,"dy":0.0017,"dx":0.0017,"nx":28,"ny":28,"refTime":"2023-08-26T09:00:00:Z","depth":"2","parameterNumber":2,"parameterNumberName":"U-component_of_CURRENTS"},"data":[0,0,0,0,0,0,0,0,0,0,0,0,0,0,0,0,0,0,0,0,0,0,0,0,0,0,0,0,0,0,0,0,0,0,0,0,0,0,0,0,0,0,0,0,0,0,0,0,0,0,0,0,0,0,0,0,0,0,-0.2083,-0.2084,0,-0.2146,-0.2147,-0.2148,-0.216,-0.2159,-0.2159,-0.2159,-0.2216,-0.2218,-0.222,0,0,0,0,0,0,0,0,0,0,0,0,0,-0.2005,-0.2006,-0.2083,-0.2084,-0.2085,-0.2146,-0.2147,-0.2148,-0.216,-0.2159,-0.2159,-0.2158,-0.2216,-0.2218,-0.222,0,0,0,0,0,0,0,0,0,0,0,0,0,-0.205,-0.2007,-0.2083,-0.2099,-0.2101,-0.2146,-0.2147,-0.2148,-0.216,-0.2159,-0.2159,-0.2158,-0.2215,-0.2218,-0.2221,-0.2252,0,0,-0.223,-0.2231,0,0,0,0,0,0,0,0,-0.2048,-0.2053,-0.2095,-0.2098,-0.21,-0.2145,-0.2141,-0.2183,-0.216,-0.2137,-0.2159,-0.2158,-0.2193,-0.2198,-0.221,-0.2255,-0.2257,-0.223,-0.2232,-0.2233,-0.2234,0,0,0,0,0,0,0,-0.2044,-0.205,-0.2108,-0.2096,-0.2099,-0.2114,-0.2119,-0.2149,-0.2167,-0.2139,-0.214,-0.2148,-0.2194,-0.2207,-0.2212,-0.2258,-0.223,-0.2232,-0.2234,-0.2235,-0.2311,-0.2311,0,0,0,0,0,0,-0.2037,-0.2048,-0.2106,-0.211,-0.2072,-0.2116,-0.2121,-0.2131,-0.2167,-0.2172,-0.2149,-0.2149,-0.2203,-0.2208,-0.2214,-0.2221,-0.2233,-0.2236,-0.2237,-0.2311,-0.2311,-0.2311,0,0,0,0,0,0,-0.2035,-0.2042,-0.2103,-0.208,-0.2089,-0.2117,-0.2128,-0.2132,-0.2142,-0.2175,-0.218,-0.2153,-0.2202,-0.221,-0.2234,-0.2224,-0.2237,-0.224,-0.231,-0.2311,-0.2311,-0.2256,0,0,0,0,0,0,-0.2033,-0.2041,-0.2045,-0.208,-0.209,-0.2119,-0.2129,-0.2134,-0.2149,-0.2149,-0.2181,-0.2186,-0.2202,-0.2229,-0.2237,-0.2228,-0.2242,-0.231,-0.2311,-0.2311,-0.2257,-0.2254,-0.2251,0,0,0,0,0,-0.203,-0.2034,-0.2044,-0.2051,-0.2095,-0.2119,-0.2125,-0.2143,-0.215,-0.215,-0.2173,-0.2184,-0.2237,-0.2232,-0.2241,-0.2233,-0.231,-0.231,-0.2311,-0.2258,-0.2255,-0.2251,0,0,0,0,0,0,-0.2004,-0.2038,-0.2049,-0.2064,-0.2085,-0.2121,-0.2126,-0.2142,-0.2163,-0.2164,-0.2192,-0.2199,-0.2208,-0.2238,-0.2232,-0.2258,-0.2274,-0.2277,-0.2231,-0.2228,-0.2225,-0.2229,-0.2244,0,0,0,0,0,-0.2001,-0.2009,-0.2045,-0.2054,-0.2065,-0.2097,-0.211,-0.2124,-0.2149,-0.2157,-0.2179,-0.2205,-0.222,-0.2238,-0.2254,-0.2281,-0.2284,-0.2282,-0.2279,-0.2276,-0.2287,-0.228,-0.2276,-0.2313,-0.2313,-0.2313,0,0,-0.1995,-0.2012,-0.2019,-0.2049,-0.2067,-0.209,-0.2102,-0.2119,-0.2135,-0.2162,-0.2182,-0.219,-0.2223,-0.2236,-0.2246,-0.2261,-0.2263,-0.2277,-0.2274,-0.2287,-0.228,-0.2276,-0.2273,-0.2313,-0.2313,-0.2313,0,0,-0.1989,-0.2001,-0.201,-0.2029,-0.2057,-0.2078,-0.2081,-0.2115,-0.2123,-0.2149,-0.2161,-0.2165,-0.2208,-0.2218,-0.2232,-0.2232,-0.2238,-0.2239,-0.2239,-0.2231,-0.2227,-0.2224,-0.2196,-0.2191,-0.2249,-0.2248,-0.2248,0,-0.1981,-0.2,-0.2015,-0.2033,-0.2049,-0.2072,-0.2092,-0.2108,-0.2143,-0.2151,-0.2147,-0.2182,-0.2197,-0.2215,-0.221,-0.2222,-0.2217,-0.2243,-0.2224,-0.2222,-0.222,-0.2192,-0.2187,-0.2246,-0.2246,-0.2246,-0.2247,0,-0.1989,-0.2005,-0.2009,-0.204,-0.2058,-0.2072,-0.2102,-0.2114,-0.2125,-0.2142,-0.2147,-0.2158,-0.2183,-0.2178,-0.2197,-0.2194,-0.2192,-0.2207,-0.2226,-0.2212,-0.2184,-0.218,-0.2242,-0.2243,-0.2244,-0.2244,0,0,-0.1967,-0.2009,-0.201,-0.2027,-0.2063,-0.2079,-0.2101,-0.2128,-0.2143,-0.2148,-0.2161,-0.2164,-0.2163,-0.2181,-0.2188,-0.2184,-0.2145,-0.2195,-0.2196,-0.2154,-0.2113,-0.2035,-0.2023,-0.2157,-0.2156,-0.2156,-0.2088,0,-0.1969,-0.1999,-0.2023,-0.2051,-0.2068,-0.2096,-0.2116,-0.2141,-0.2154,-0.2168,-0.2164,-0.2173,-0.2168,-0.2171,-0.2163,-0.2163,-0.2138,-0.2162,-0.2146,-0.2145,-0.2067,-0.2018,-0.1886,-0.1809,-0.2084,-0.2083,-0.2083,0,-0.1962,-0.1989,-0.2018,-0.2058,-0.2069,-0.2088,-0.2121,-0.2144,-0.2168,-0.2176,-0.218,-0.2184,-0.2181,-0.2172,-0.2145,-0.2163,-0.2133,-0.2118,-0.2116,-0.2066,-0.206,-0.1875,-0.1791,-0.2076,-0.2077,-0.2077,-0.2078,0,-0.1928,-0.1976,-0.1998,-0.2013,-0.2068,-0.2081,-0.2106,-0.2139,-0.2155,-0.2179,-0.2185,-0.2186,-0.2177,-0.2158,-0.2128,-0.214,-0.2086,-0.2099,-0.1989,-0.1983,-0.1881,-0.1866,-0.2057,-0.2057,-0.2057,-0.2057,-0.2058,0,-0.1911,-0.1924,-0.1982,-0.1996,-0.2015,-0.2063,-0.208,-0.2107,-0.2143,-0.215,-0.218,-0.2174,-0.2174,-0.2149,-0.2124,-0.2036,-0.2077,-0.1973,-0.1958,-0.1855,-0.1839,-0.2095,-0.2101,-0.2055,-0.2055,-0.2056,-0.2056,0,-0.1854,-0.1899,-0.192,-0.1981,-0.1996,-0.2004,-0.2053,-0.2065,-0.2112,-0.2122,-0.2128,-0.2156,-0.2113,-0.2094,-0.2052,-0.2009,-0.1953,-0.1907,-0.1775,-0.1744,-0.1854,-0.1858,-0.1775,-0.1772,-0.1769,-0.1767,-0.1765,0,-0.1824,-0.183,-0.1885,-0.1896,-0.1918,-0.1946,-0.196,-0.2026,-0.2044,-0.2096,-0.2092,-0.2075,-0.2027,-0.1939,-0.1865,-0.1777,-0.185,-0.1608,-0.1602,-0.183,-0.1824,-0.1833,-0.184,-0.1435,-0.143,-0.1427,-0.1424,0,-0.1754,-0.1771,-0.179,-0.1814,-0.1831,-0.1851,-0.1883,-0.1899,-0.197,-0.1978,-0.1978,-0.195,-0.1868,-0.1716,-0.1612,-0.155,-0.1618,-0.1527,-0.1794,-0.1532,-0.1505,-0.1501,-0.152,-0.139,-0.1394,-0.1396,-0.1398,-0.1399,-0.1679,-0.1672,-0.1696,-0.1703,-0.1727,-0.1733,-0.1705,-0.1755,-0.1757,-0.1743,-0.181,-0.1712,-0.1684,-0.1442,-0.1348,-0.1265,-0.1376,-0.1318,-0.1331,-0.1348,-0.1326,-0.1296,-0.1137,-0.1139,-0.114,-0.1142,-0.1143,0,-0.1576,-0.1578,-0.1585,-0.1589,-0.1561,-0.1613,-0.1626,-0.1576,-0.153,-0.1547,-0.1513,-0.1342,-0.1228,-0.1192,-0.1015,-0.0972,-0.0979,-0.0924,-0.0948,-0.098,-0.1009,-0.0973,-0.0688,-0.0687,-0.0686,-0.0685,0,0,-0.1522,-0.1487,-0.149,-0.1409,-0.1408,-0.1326,-0.13,-0.125,-0.1229,-0.1154,-0.1102,-0.1175,-0.1175,-0.0953,-0.0885,-0.0759,-0.0862,-0.071,-0.1075,-0.1137,-0.1165,-0.1234,-0.1213,0,0,0,0,0]},{"header":{"parameterUnit":"m.s-1","parameterCategory":2,"la1":30.2991,"la2":30.254,"lo1":-89.0895,"lo2":-89.0444,"dy":0.0017,"dx":0.0017,"nx":28,"ny":28,"refTime":"2023-08-26T09:00:00:Z","depth":"2","parameterNumber":3,"parameterNumberName":"V-component_of_CURRENTS"},"data":[0,0,0,0,0,0,0,0,0,0,0,0,0,0,0,0,0,0,0,0,0,0,0,0,0,0,0,0,0,0,0,0,0,0,0,0,0,0,0,0,0,0,0,0,0,0,0,0,0,0,0,0,0,0,0,0,0,0,-0.0302,-0.0302,0,-0.0226,-0.0225,-0.0224,-0.015,-0.015,-0.0149,-0.0148,-0.0037,-0.0035,-0.0032,0,0,0,0,0,0,0,0,0,0,0,0,0,-0.0323,-0.0323,-0.0302,-0.0301,-0.0301,-0.0226,-0.0225,-0.0224,-0.0151,-0.015,-0.0149,-0.0148,-0.0037,-0.0035,-0.0032,0,0,0,0,0,0,0,0,0,0,0,0,0,-0.0285,-0.0323,-0.0302,-0.0257,-0.0252,-0.0226,-0.0225,-0.0223,-0.0151,-0.015,-0.0149,-0.0148,-0.0038,-0.0035,-0.0032,-0.0033,0,0,-0.0021,-0.002,0,0,0,0,0,0,0,0,-0.0287,-0.0284,-0.0264,-0.026,-0.0255,-0.0198,-0.0191,-0.0158,-0.0151,-0.0187,-0.0148,-0.0147,-0.009,-0.0082,-0.0068,-0.0027,-0.0023,-0.0021,-0.0019,-0.0017,-0.0016,0,0,0,0,0,0,0,-0.029,-0.0287,-0.027,-0.0264,-0.0258,-0.0219,-0.0213,-0.0184,-0.0143,-0.0184,-0.0179,-0.0174,-0.0086,-0.0071,-0.0064,-0.0021,-0.0021,-0.0018,-0.0016,-0.0015,0.0048,0.0047,0,0,0,0,0,0,-0.0309,-0.029,-0.0272,-0.0268,-0.0271,-0.022,-0.0213,-0.0216,-0.0144,-0.0133,-0.0175,-0.0171,-0.0077,-0.0068,-0.006,-0.0039,-0.0017,-0.0014,-0.0012,0.0048,0.0048,0.0047,0,0,0,0,0,0,-0.031,-0.0308,-0.0275,-0.0278,-0.0271,-0.0222,-0.0225,-0.0215,-0.0198,-0.0138,-0.0126,-0.0169,-0.0076,-0.0065,-0.0034,-0.0035,-0.0013,-0.001,0.0049,0.0048,0.0048,-0.0009,0,0,0,0,0,0,-0.0311,-0.0309,-0.0316,-0.028,-0.0272,-0.0267,-0.0226,-0.0214,-0.0198,-0.0192,-0.0129,-0.0117,-0.0075,-0.004,-0.0031,-0.003,-0.0007,0.0049,0.0048,0.0048,-0.0007,-0.0012,-0.0016,0,0,0,0,0,-0.0312,-0.0325,-0.0318,-0.0315,-0.0285,-0.0268,-0.0261,-0.0219,-0.0199,-0.0198,-0.0153,-0.0119,-0.0038,-0.0038,-0.0027,-0.0025,0.005,0.0049,0.0048,-0.0005,-0.0011,-0.0016,0,0,0,0,0,0,-0.0334,-0.0318,-0.0309,-0.0316,-0.0299,-0.0256,-0.025,-0.0228,-0.0192,-0.0184,-0.0125,-0.0111,-0.0086,-0.0052,-0.0053,-0.001,0.0011,0.0013,-0.0032,-0.0037,-0.0042,-0.0049,-0.0004,0,0,0,0,0,-0.0347,-0.0355,-0.0332,-0.0338,-0.0332,-0.0295,-0.0283,-0.0261,-0.0226,-0.0208,-0.0166,-0.0121,-0.0083,-0.0058,-0.0025,-0.0003,0.0035,0.0005,0.0001,-0.0003,-0.0002,0.0053,0.0054,0.0044,0.0044,0.0044,0,0,-0.0356,-0.0351,-0.0352,-0.0344,-0.0324,-0.0322,-0.0284,-0.0274,-0.0266,-0.0203,-0.0179,-0.014,-0.0083,-0.0056,-0.0041,-0.0025,0.0017,-0.0004,-0.0008,-0.0005,0.0052,0.0053,0.0054,0.0044,0.0044,0.0044,0,0,-0.0379,-0.0375,-0.0388,-0.0382,-0.0368,-0.0345,-0.0348,-0.0315,-0.0293,-0.0275,-0.0223,-0.0184,-0.0135,-0.0085,-0.0055,-0.0066,-0.0015,-0.006,-0.0079,-0.0025,-0.0024,-0.0022,0.0017,0.0023,-0.0055,-0.0055,-0.0055,0,-0.039,-0.0405,-0.0388,-0.04,-0.0399,-0.0361,-0.0372,-0.0347,-0.0308,-0.029,-0.0276,-0.019,-0.0145,-0.0091,-0.0093,-0.0075,-0.0043,-0.0063,-0.003,-0.0028,-0.0025,0.0015,0.0022,-0.0058,-0.0057,-0.0057,-0.0057,0,-0.0424,-0.0434,-0.0441,-0.0445,-0.0442,-0.0446,-0.0418,-0.0404,-0.0377,-0.0346,-0.0301,-0.0239,-0.0181,-0.0164,-0.0129,-0.0086,-0.0071,-0.0049,-0.0017,-0.0027,0.0015,0.0024,-0.0062,-0.0061,-0.006,-0.0059,0,0,-0.0452,-0.0463,-0.0465,-0.0476,-0.0469,-0.047,-0.0459,-0.0434,-0.0418,-0.0376,-0.0346,-0.0279,-0.024,-0.0203,-0.0151,-0.0102,-0.0058,-0.0072,-0.0068,-0.0035,0.0051,0.008,0.0093,-0.003,-0.0029,-0.0028,0.0068,0,-0.0481,-0.0519,-0.0511,-0.0536,-0.0552,-0.0522,-0.0518,-0.0491,-0.0451,-0.0412,-0.0337,-0.0295,-0.0255,-0.0228,-0.0171,-0.0084,-0.0037,-0.0086,0.0057,0.0061,0.0088,0.0104,0.0086,0.0172,0.0077,0.0078,0.0079,0,-0.0518,-0.0539,-0.0576,-0.0589,-0.0592,-0.0598,-0.058,-0.0566,-0.0499,-0.0467,-0.0402,-0.0346,-0.0262,-0.0234,-0.0087,-0.0122,-0.0045,0.002,0.0026,0.0082,0.0107,0.017,0.0192,0.0094,0.0093,0.0092,0.0091,0,-0.0559,-0.0582,-0.0615,-0.0623,-0.063,-0.0634,-0.0627,-0.0584,-0.0566,-0.0494,-0.0469,-0.0367,-0.0309,-0.0201,-0.0069,-0.0077,0.0091,0.0101,0.0199,0.0201,0.023,0.0233,0.0198,0.0198,0.0198,0.0197,0.0197,0,-0.0602,-0.0625,-0.0637,-0.0659,-0.0692,-0.0679,-0.0686,-0.0659,-0.061,-0.0584,-0.0498,-0.0445,-0.0299,-0.0186,-0.0074,0.0095,0.0092,0.0202,0.0235,0.0208,0.0208,0.0176,0.0172,0.0201,0.02,0.0199,0.0199,0,-0.0645,-0.0652,-0.069,-0.0708,-0.0715,-0.0738,-0.0736,-0.0732,-0.0679,-0.0638,-0.0621,-0.0493,-0.0346,-0.0198,-0.0011,0.0093,0.0243,0.0298,0.0249,0.0275,0.0315,0.0307,0.0418,0.042,0.0422,0.0424,0.0425,0,-0.0671,-0.0695,-0.0733,-0.076,-0.077,-0.0795,-0.0811,-0.0774,-0.0758,-0.066,-0.0638,-0.0498,-0.038,-0.0095,0.0101,0.0305,0.0293,0.0403,0.039,0.032,0.0341,0.033,0.032,0.04,0.0401,0.0402,0.0402,0,-0.0716,-0.0726,-0.0758,-0.0817,-0.0847,-0.0873,-0.0882,-0.088,-0.0821,-0.0762,-0.0647,-0.0545,-0.0279,-0.0039,0.0213,0.0325,0.0368,0.0425,0.0387,0.0343,0.031,0.0328,0.0317,0.0409,0.0408,0.0408,0.0407,0.0407,-0.0739,-0.0776,-0.0818,-0.087,-0.0908,-0.0936,-0.0946,-0.092,-0.0877,-0.0759,-0.066,-0.0465,-0.0249,0.013,0.0308,0.0463,0.0452,0.0495,0.049,0.0484,0.0461,0.0433,0.055,0.055,0.055,0.055,0.055,0,-0.077,-0.0811,-0.0868,-0.0926,-0.0969,-0.0974,-0.0981,-0.095,-0.0882,-0.0739,-0.0597,-0.0339,-0.0069,0.0142,0.0408,0.0563,0.0535,0.0571,0.0512,0.0505,0.0498,0.0473,0.0567,0.0567,0.0568,0.0568,0,0,-0.0787,-0.0847,-0.0881,-0.0959,-0.0997,-0.1017,-0.1013,-0.0936,-0.0826,-0.0669,-0.0507,-0.0299,-0.0042,0.0153,0.0335,0.0466,0.0441,0.0467,0.0438,0.0339,0.0331,0.044,0.0392,0,0,0,0,0]}],[{"header":{"parameterUnit":"m.s-1","parameterCategory":2,"la1":30.2991,"la2":30.254,"lo1":-89.0895,"lo2":-89.0444,"dy":0.0017,"dx":0.0017,"nx":28,"ny":28,"refTime":"2023-08-26T09:00:00:Z","depth":"4","parameterNumber":2,"parameterNumberName":"U-component_of_CURRENTS"},"data":[0,0,0,0,0,0,0,0,0,0,0,0,0,0,0,0,0,0,0,0,0,0,0,0,0,0,0,0,0,0,0,0,0,0,0,0,0,0,0,0,0,0,0,0,0,0,0,0,0,0,0,0,0,0,0,0,0,0,-0.1537,-0.1539,0,-0.1629,-0.163,-0.1631,-0.1681,-0.1682,-0.1682,-0.1682,-0.1683,-0.1682,-0.1682,0,0,0,0,0,0,0,0,0,0,0,0,0,-0.1426,-0.1427,-0.1537,-0.1539,-0.154,-0.1629,-0.163,-0.1631,-0.1681,-0.1682,-0.1682,-0.1682,-0.1683,-0.1683,-0.1682,0,0,0,0,0,0,0,0,0,0,0,0,0,-0.149,-0.1428,-0.1537,-0.1577,-0.1582,-0.1629,-0.163,-0.1632,-0.1681,-0.1682,-0.1682,-0.1682,-0.1683,-0.1683,-0.1682,-0.1671,0,0,-0.1681,-0.1681,0,0,0,0,0,0,0,0,-0.1486,-0.1493,-0.157,-0.1574,-0.158,-0.1646,-0.1592,-0.1641,-0.1681,-0.1641,-0.1682,-0.1683,-0.1663,-0.1664,-0.1679,-0.1671,-0.1671,-0.1681,-0.1681,-0.1681,-0.168,0,0,0,0,0,0,0,-0.1481,-0.149,-0.1572,-0.1571,-0.1577,-0.1598,-0.1607,-0.1601,-0.1645,-0.1645,-0.1649,-0.1662,-0.1665,-0.1679,-0.1679,-0.1671,-0.1681,-0.1681,-0.168,-0.168,-0.1696,-0.1697,0,0,0,0,0,0,-0.1473,-0.1486,-0.1569,-0.1575,-0.1535,-0.1599,-0.161,-0.1623,-0.1647,-0.1653,-0.1662,-0.1664,-0.168,-0.168,-0.1679,-0.1712,-0.1681,-0.168,-0.168,-0.1696,-0.1696,-0.1697,0,0,0,0,0,0,-0.147,-0.1479,-0.1565,-0.1534,-0.1546,-0.1601,-0.1615,-0.1624,-0.1664,-0.1662,-0.1665,-0.1695,-0.168,-0.168,-0.1695,-0.1711,-0.168,-0.168,-0.1695,-0.1696,-0.1697,-0.1749,0,0,0,0,0,0,-0.1466,-0.1478,-0.1496,-0.1533,-0.1548,-0.1601,-0.1615,-0.1626,-0.167,-0.1675,-0.169,-0.169,-0.1681,-0.1696,-0.1695,-0.171,-0.1679,-0.1694,-0.1695,-0.1696,-0.1746,-0.1751,-0.1756,0,0,0,0,0,-0.1462,-0.1478,-0.1496,-0.1507,-0.1567,-0.1602,-0.1612,-0.165,-0.1672,-0.1688,-0.1704,-0.1691,-0.1703,-0.1697,-0.1695,-0.171,-0.1693,-0.1695,-0.1696,-0.1744,-0.175,-0.1756,0,0,0,0,0,0,-0.1442,-0.1486,-0.1506,-0.1537,-0.1573,-0.1612,-0.1636,-0.1664,-0.1693,-0.1702,-0.1701,-0.1702,-0.1716,-0.1707,-0.1701,-0.1717,-0.1695,-0.1696,-0.1731,-0.1737,-0.1742,-0.1739,-0.1679,0,0,0,0,0,-0.1446,-0.1468,-0.1511,-0.1538,-0.1557,-0.1602,-0.1628,-0.1654,-0.1681,-0.1698,-0.1712,-0.172,-0.1717,-0.1725,-0.1718,-0.1734,-0.1714,-0.1741,-0.1746,-0.175,-0.1747,-0.1743,-0.1747,-0.1702,-0.1702,-0.1702,0,0,-0.1449,-0.1474,-0.149,-0.1535,-0.1568,-0.16,-0.1619,-0.166,-0.1691,-0.1688,-0.1736,-0.1734,-0.1723,-0.1737,-0.1743,-0.1737,-0.1752,-0.1752,-0.1756,-0.175,-0.1745,-0.1749,-0.1753,-0.1703,-0.1703,-0.1703,0,0,-0.1454,-0.1486,-0.1506,-0.1536,-0.1586,-0.1611,-0.1628,-0.1681,-0.171,-0.1747,-0.1749,-0.1763,-0.1774,-0.1772,-0.1768,-0.1796,-0.1771,-0.1797,-0.1828,-0.1825,-0.1829,-0.1832,-0.1809,-0.181,-0.1807,-0.1808,-0.1808,0,-0.146,-0.149,-0.1519,-0.1545,-0.1575,-0.1618,-0.165,-0.1682,-0.1737,-0.1756,-0.1765,-0.179,-0.1787,-0.1796,-0.1811,-0.1806,-0.1796,-0.1809,-0.1832,-0.1834,-0.1836,-0.1812,-0.1812,-0.181,-0.181,-0.181,-0.1809,0,-0.1475,-0.151,-0.1524,-0.1571,-0.1604,-0.1637,-0.1683,-0.1721,-0.1761,-0.179,-0.182,-0.1823,-0.1836,-0.1841,-0.1837,-0.1854,-0.1837,-0.1833,-0.1818,-0.1844,-0.1817,-0.1816,-0.1814,-0.1813,-0.1812,-0.1812,0,0,-0.1458,-0.1524,-0.1533,-0.1561,-0.1623,-0.1649,-0.1697,-0.1747,-0.1779,-0.1824,-0.1858,-0.1869,-0.188,-0.1876,-0.1876,-0.1884,-0.1894,-0.1876,-0.1875,-0.1854,-0.1878,-0.1748,-0.1734,-0.1901,-0.1902,-0.1902,-0.1851,0,-0.1467,-0.1516,-0.1549,-0.1604,-0.1633,-0.1683,-0.1722,-0.1771,-0.1811,-0.1852,-0.1866,-0.1889,-0.1891,-0.1902,-0.1912,-0.1899,-0.1895,-0.1907,-0.1854,-0.1852,-0.1734,-0.173,-0.1903,-0.185,-0.185,-0.185,-0.185,0,-0.1463,-0.1502,-0.1556,-0.1621,-0.164,-0.168,-0.1746,-0.1787,-0.1842,-0.187,-0.19,-0.1912,-0.1933,-0.1928,-0.1919,-0.1931,-0.1907,-0.1893,-0.1891,-0.1748,-0.172,-0.1819,-0.1847,-0.1847,-0.1848,-0.1848,-0.1848,0,-0.1423,-0.1499,-0.1543,-0.1569,-0.1651,-0.1687,-0.1733,-0.1795,-0.1826,-0.1882,-0.1902,-0.1929,-0.1936,-0.193,-0.1909,-0.1921,-0.1884,-0.1891,-0.1743,-0.1734,-0.1846,-0.1843,-0.1868,-0.1868,-0.1868,-0.1868,-0.1868,0,-0.14,-0.1438,-0.1533,-0.1559,-0.1608,-0.1675,-0.1725,-0.1771,-0.1831,-0.185,-0.1907,-0.1908,-0.194,-0.1926,-0.191,-0.1811,-0.1879,-0.1733,-0.1708,-0.1868,-0.1868,-0.1844,-0.1842,-0.1866,-0.1867,-0.1867,-0.1867,0,-0.1337,-0.1406,-0.1458,-0.1557,-0.159,-0.1624,-0.1712,-0.1736,-0.1807,-0.1831,-0.1848,-0.1893,-0.1861,-0.1865,-0.1839,-0.178,-0.1722,-0.1668,-0.1823,-0.1811,-0.1575,-0.1576,-0.1495,-0.1489,-0.1485,-0.1482,-0.1479,0,-0.1306,-0.1329,-0.1439,-0.1471,-0.1519,-0.1584,-0.1617,-0.1707,-0.1729,-0.1798,-0.1791,-0.1795,-0.1802,-0.1654,-0.1682,-0.1612,-0.1593,-0.1555,-0.1574,-0.155,-0.1535,-0.1544,-0.1551,-0.1472,-0.1471,-0.1469,-0.1468,0,-0.1237,-0.1288,-0.1332,-0.1395,-0.1445,-0.1486,-0.1546,-0.1552,-0.1636,-0.1717,-0.1675,-0.1641,-0.159,-0.1556,-0.15,-0.1463,-0.1582,-0.1509,-0.1519,-0.1537,-0.1521,-0.1513,-0.1525,-0.1453,-0.1455,-0.1457,-0.1458,0,-0.1181,-0.1191,-0.1254,-0.1292,-0.1353,-0.1364,-0.1413,-0.1429,-0.146,-0.1548,-0.1526,-0.153,-0.1572,-0.1476,-0.1437,-0.1374,-0.1354,-0.1318,-0.1337,-0.1354,-0.1329,-0.129,-0.1115,0,0,0,0,0,-0.1113,-0.1111,-0.1144,-0.1179,-0.1233,-0.1261,-0.1349,-0.1402,-0.1489,-0.1416,-0.1468,-0.1414,-0.1337,-0.135,-0.1249,-0.1363,-0.1359,-0.1242,-0.1331,-0.137,-0.1388,-0.1371,0,0,0,0,0,0,-0.1069,-0.1096,-0.1102,-0.1066,-0.1066,-0.1106,-0.1154,-0.1221,-0.1197,-0.1291,-0.1255,-0.1318,-0.1264,-0.1354,-0.1212,-0.1212,-0.1238,-0.1255,-0.1251,-0.136,-0.1376,-0.139,-0.1379,0,0,0,0,0]},{"header":{"parameterUnit":"m.s-1","parameterCategory":2,"la1":30.2991,"la2":30.254,"lo1":-89.0895,"lo2":-89.0444,"dy":0.0017,"dx":0.0017,"nx":28,"ny":28,"refTime":"2023-08-26T09:00:00:Z","depth":"4","parameterNumber":3,"parameterNumberName":"V-component_of_CURRENTS"},"data":[0,0,0,0,0,0,0,0,0,0,0,0,0,0,0,0,0,0,0,0,0,0,0,0,0,0,0,0,0,0,0,0,0,0,0,0,0,0,0,0,0,0,0,0,0,0,0,0,0,0,0,0,0,0,0,0,0,0,-0.0222,-0.0222,0,-0.0175,-0.0175,-0.0174,-0.0127,-0.0127,-0.0126,-0.0126,-0.0088,-0.0088,-0.0087,0,0,0,0,0,0,0,0,0,0,0,0,0,-0.0225,-0.0226,-0.0222,-0.0222,-0.0222,-0.0176,-0.0175,-0.0174,-0.0127,-0.0127,-0.0126,-0.0125,-0.0089,-0.0088,-0.0087,0,0,0,0,0,0,0,0,0,0,0,0,0,-0.0204,-0.0226,-0.0222,-0.0194,-0.0191,-0.0176,-0.0175,-0.0174,-0.0127,-0.0127,-0.0126,-0.0125,-0.0089,-0.0088,-0.0087,-0.0096,0,0,-0.0085,-0.0084,0,0,0,0,0,0,0,0,-0.0206,-0.0204,-0.0199,-0.0196,-0.0193,-0.0158,-0.0162,-0.0149,-0.0127,-0.015,-0.0126,-0.0125,-0.0114,-0.0111,-0.0101,-0.0094,-0.0093,-0.0085,-0.0084,-0.0084,-0.0083,0,0,0,0,0,0,0,-0.0207,-0.0206,-0.0202,-0.0198,-0.0195,-0.0168,-0.0164,-0.0159,-0.0135,-0.0148,-0.0145,-0.0142,-0.0112,-0.0102,-0.01,-0.0092,-0.0085,-0.0084,-0.0083,-0.0083,-0.0096,-0.0097,0,0,0,0,0,0,-0.022,-0.0207,-0.0204,-0.0201,-0.02,-0.0169,-0.0165,-0.0168,-0.0135,-0.013,-0.0143,-0.014,-0.0104,-0.0101,-0.0099,-0.0097,-0.0084,-0.0083,-0.0082,-0.0095,-0.0096,-0.0097,0,0,0,0,0,0,-0.022,-0.022,-0.0205,-0.0204,-0.02,-0.017,-0.0174,-0.0168,-0.0159,-0.0132,-0.0126,-0.0141,-0.0103,-0.01,-0.0096,-0.0095,-0.0082,-0.0082,-0.0094,-0.0095,-0.0096,-0.01,0,0,0,0,0,0,-0.0221,-0.0221,-0.0229,-0.0205,-0.0201,-0.0204,-0.0175,-0.0167,-0.0159,-0.0155,-0.0128,-0.0123,-0.0102,-0.0098,-0.0095,-0.0094,-0.0081,-0.0093,-0.0094,-0.0096,-0.0099,-0.0101,-0.0103,0,0,0,0,0,-0.0221,-0.0234,-0.023,-0.0229,-0.0213,-0.0204,-0.02,-0.0174,-0.016,-0.0162,-0.0141,-0.0124,-0.0106,-0.0098,-0.0095,-0.0093,-0.0092,-0.0094,-0.0096,-0.0098,-0.01,-0.0103,0,0,0,0,0,0,-0.0237,-0.023,-0.0224,-0.0234,-0.0225,-0.0197,-0.0196,-0.0181,-0.0165,-0.0162,-0.0133,-0.0127,-0.0127,-0.0117,-0.0108,-0.0105,-0.0098,-0.0099,-0.01,-0.0103,-0.0105,-0.0108,-0.008,0,0,0,0,0,-0.0247,-0.0256,-0.0243,-0.0251,-0.0249,-0.0225,-0.0219,-0.0205,-0.0188,-0.0179,-0.016,-0.0145,-0.0134,-0.0123,-0.0119,-0.0114,-0.0088,-0.0114,-0.0116,-0.0118,-0.0121,-0.0072,-0.0069,-0.0103,-0.0103,-0.0103,0,0,-0.0254,-0.0253,-0.0257,-0.0256,-0.0244,-0.0246,-0.0219,-0.0216,-0.0214,-0.018,-0.0173,-0.0158,-0.0138,-0.0131,-0.013,-0.0119,-0.0097,-0.0121,-0.0122,-0.0124,-0.0073,-0.0069,-0.0066,-0.0104,-0.0104,-0.0104,0,0,-0.0272,-0.0274,-0.0286,-0.0285,-0.028,-0.0266,-0.0269,-0.025,-0.0237,-0.0235,-0.0207,-0.0186,-0.0179,-0.0148,-0.0135,-0.0151,-0.0117,-0.0159,-0.0159,-0.0111,-0.0107,-0.0103,-0.0067,-0.006,-0.015,-0.015,-0.015,0,-0.0282,-0.0296,-0.0287,-0.0299,-0.0303,-0.0278,-0.029,-0.0275,-0.0257,-0.0246,-0.024,-0.0204,-0.0183,-0.0153,-0.0154,-0.0152,-0.0127,-0.0145,-0.011,-0.0106,-0.0102,-0.0067,-0.0059,-0.0151,-0.0151,-0.0151,-0.0151,0,-0.0309,-0.0321,-0.0328,-0.0336,-0.0338,-0.0346,-0.0331,-0.0325,-0.031,-0.0289,-0.0268,-0.023,-0.0203,-0.0193,-0.0176,-0.014,-0.0134,-0.0122,-0.0096,-0.0098,-0.0062,-0.0053,-0.0151,-0.0151,-0.0151,-0.0151,0,0,-0.0328,-0.0344,-0.0347,-0.0359,-0.0362,-0.0367,-0.0365,-0.0352,-0.0343,-0.0317,-0.0297,-0.026,-0.0231,-0.0215,-0.0182,-0.0134,-0.0078,-0.0118,-0.0115,-0.0071,0.0021,0.0015,0.0024,-0.0057,-0.0055,-0.0054,0.0035,0,-0.035,-0.0385,-0.0383,-0.041,-0.0426,-0.0411,-0.0414,-0.0399,-0.0374,-0.0348,-0.0293,-0.0272,-0.0241,-0.0225,-0.017,-0.0107,-0.0057,-0.0104,0.0004,0.0007,0.0014,0.0033,-0.005,0.0041,0.0043,0.0045,0.0046,0,-0.0378,-0.0398,-0.0433,-0.0453,-0.0458,-0.047,-0.0467,-0.0462,-0.0417,-0.0396,-0.0346,-0.0309,-0.0238,-0.0216,-0.009,-0.0123,-0.0056,-0.0002,0.0003,0.0004,0.0017,0.0042,0.0061,0.006,0.0059,0.0058,0.0057,0,-0.0403,-0.0431,-0.0463,-0.0473,-0.049,-0.0501,-0.0504,-0.0479,-0.0471,-0.042,-0.0403,-0.032,-0.0276,-0.018,-0.0072,-0.0079,0.0066,0.0075,0.0134,0.0134,0.0115,0.011,0.0165,0.0165,0.0165,0.0164,0.0164,0,-0.043,-0.0455,-0.0481,-0.0501,-0.0538,-0.0536,-0.0555,-0.0539,-0.0509,-0.0494,-0.0427,-0.0387,-0.0265,-0.0171,-0.0073,0.0057,0.0071,0.0137,0.0161,0.0109,0.0102,0.0122,0.0115,0.0168,0.0167,0.0166,0.0166,0,-0.0453,-0.0469,-0.0509,-0.054,-0.0554,-0.0581,-0.0599,-0.0602,-0.0569,-0.0542,-0.053,-0.0428,-0.0307,-0.0185,-0.0024,0.0052,0.0175,0.0216,0.0144,0.0162,0.0209,0.0202,0.0292,0.0293,0.0294,0.0294,0.0294,0,-0.0467,-0.0491,-0.0545,-0.0576,-0.0595,-0.063,-0.0653,-0.0637,-0.0627,-0.056,-0.0541,-0.0433,-0.0356,-0.0121,-0.0001,0.018,0.0203,0.0261,0.0241,0.0211,0.0225,0.0216,0.0208,0.0295,0.0295,0.0296,0.0296,0,-0.0492,-0.0514,-0.0548,-0.0615,-0.0654,-0.0689,-0.071,-0.0705,-0.0669,-0.0644,-0.053,-0.0412,-0.0275,-0.0111,0.0023,0.0154,0.0221,0.0267,0.0267,0.0249,0.0215,0.0227,0.0218,0.0298,0.0297,0.0297,0.0297,0,-0.0507,-0.0541,-0.059,-0.0644,-0.0699,-0.0728,-0.0736,-0.0705,-0.0684,-0.0597,-0.0558,-0.0405,-0.0314,-0.0123,0.0007,0.0125,0.0154,0.0192,0.0196,0.0195,0.0134,0.0075,0.0142,0,0,0,0,0,-0.0518,-0.0558,-0.0615,-0.0674,-0.0727,-0.0753,-0.0764,-0.0755,-0.0718,-0.0637,-0.0591,-0.0458,-0.0248,-0.015,-0.003,-0.0006,0.0151,0.0136,0.0191,0.0308,0.0306,0.025,0,0,0,0,0,0,-0.0527,-0.0584,-0.0614,-0.0684,-0.0726,-0.0774,-0.0779,-0.0754,-0.0691,-0.0635,-0.0516,-0.0439,-0.0235,-0.0321,-0.0033,0.0003,0.0054,0.0237,0.024,0.0309,0.0307,0.0306,0.0247,0,0,0,0,0]}]]